Year,Month,Day,Hour,Minute,Value (Times are PST for temperature in C)
2015,08,07,00,00,16.70
2015,08,07,00,01,16.70
2015,08,07,00,02,16.70
2015,08,07,00,03,16.70
2015,08,07,00,04,16.70
2015,08,07,00,05,16.80
2015,08,07,00,06,16.80
2015,08,07,00,07,16.80
2015,08,07,00,08,16.80
2015,08,07,00,09,16.80
2015,08,07,00,10,16.80
2015,08,07,00,11,16.80
2015,08,07,00,12,16.80
2015,08,07,00,13,16.80
2015,08,07,00,14,16.80
2015,08,07,00,15,16.80
2015,08,07,00,16,16.80
2015,08,07,00,17,16.80
2015,08,07,00,18,16.80
2015,08,07,00,19,16.80
2015,08,07,00,20,16.80
2015,08,07,00,21,16.80
2015,08,07,00,22,16.80
2015,08,07,00,23,16.80
2015,08,07,00,24,16.80
2015,08,07,00,25,16.80
2015,08,07,00,26,16.80
2015,08,07,00,27,16.80
2015,08,07,00,28,16.80
2015,08,07,00,29,16.80
2015,08,07,00,30,16.80
2015,08,07,00,31,16.80
2015,08,07,00,32,16.80
2015,08,07,00,33,16.80
2015,08,07,00,34,16.80
2015,08,07,00,35,16.80
2015,08,07,00,36,16.80
2015,08,07,00,37,16.80
2015,08,07,00,38,16.80
2015,08,07,00,39,16.80
2015,08,07,00,40,16.80
2015,08,07,00,41,16.80
2015,08,07,00,42,16.80
2015,08,07,00,43,16.80
2015,08,07,00,44,16.90
2015,08,07,00,45,16.90
2015,08,07,00,46,16.90
2015,08,07,00,47,16.90
2015,08,07,00,48,16.90
2015,08,07,00,49,16.90
2015,08,07,00,50,16.80
2015,08,07,00,51,16.80
2015,08,07,00,52,16.80
2015,08,07,00,53,16.80
2015,08,07,00,54,16.80
2015,08,07,00,55,16.80
2015,08,07,00,56,16.80
2015,08,07,00,57,16.80
2015,08,07,00,58,16.80
2015,08,07,00,59,16.70
2015,08,07,01,00,16.70
2015,08,07,01,01,16.70
2015,08,07,01,02,16.70
2015,08,07,01,03,16.60
2015,08,07,01,04,16.60
2015,08,07,01,05,16.60
2015,08,07,01,06,16.60
2015,08,07,01,07,16.50
2015,08,07,01,08,16.50
2015,08,07,01,09,16.40
2015,08,07,01,10,16.40
2015,08,07,01,11,16.40
2015,08,07,01,12,16.40
2015,08,07,01,13,16.30
2015,08,07,01,14,16.30
2015,08,07,01,15,16.30
2015,08,07,01,16,16.30
2015,08,07,01,17,16.20
2015,08,07,01,18,16.20
2015,08,07,01,19,16.20
2015,08,07,01,20,16.20
2015,08,07,01,21,16.20
2015,08,07,01,22,16.20
2015,08,07,01,23,16.20
2015,08,07,01,24,16.20
2015,08,07,01,25,16.20
2015,08,07,01,26,16.20
2015,08,07,01,27,16.20
2015,08,07,01,28,16.20
2015,08,07,01,29,16.20
2015,08,07,01,30,16.20
2015,08,07,01,31,16.20
2015,08,07,01,32,16.20
2015,08,07,01,33,16.20
2015,08,07,01,34,16.20
2015,08,07,01,35,16.20
2015,08,07,01,36,16.20
2015,08,07,01,37,16.10
2015,08,07,01,38,16.10
2015,08,07,01,39,16.10
2015,08,07,01,40,16.10
2015,08,07,01,41,16.10
2015,08,07,01,42,16.10
2015,08,07,01,43,16.10
2015,08,07,01,44,16.10
2015,08,07,01,45,16.10
2015,08,07,01,46,16.10
2015,08,07,01,47,16.10
2015,08,07,01,48,16.10
2015,08,07,01,49,16.00
2015,08,07,01,50,16.00
2015,08,07,01,51,16.00
2015,08,07,01,52,16.00
2015,08,07,01,53,15.90
2015,08,07,01,54,15.90
2015,08,07,01,55,15.90
2015,08,07,01,56,15.90
2015,08,07,01,57,15.90
2015,08,07,01,58,15.90
2015,08,07,01,59,15.80
2015,08,07,02,00,15.80
2015,08,07,02,01,15.80
2015,08,07,02,02,15.80
2015,08,07,02,03,15.80
2015,08,07,02,04,15.80
2015,08,07,02,05,15.80
2015,08,07,02,06,15.80
2015,08,07,02,07,15.80
2015,08,07,02,08,15.80
2015,08,07,02,09,15.80
2015,08,07,02,10,15.80
2015,08,07,02,11,15.80
2015,08,07,02,12,15.80
2015,08,07,02,13,15.80
2015,08,07,02,14,15.80
2015,08,07,02,15,15.80
2015,08,07,02,16,15.80
2015,08,07,02,17,15.80
2015,08,07,02,18,15.80
2015,08,07,02,19,15.80
2015,08,07,02,20,15.80
2015,08,07,02,21,15.90
2015,08,07,02,22,15.80
2015,08,07,02,23,15.90
2015,08,07,02,24,15.80
2015,08,07,02,25,15.80
2015,08,07,02,26,15.80
2015,08,07,02,27,15.80
2015,08,07,02,28,15.80
2015,08,07,02,29,15.80
2015,08,07,02,30,15.80
2015,08,07,02,31,15.80
2015,08,07,02,32,15.80
2015,08,07,02,33,15.90
2015,08,07,02,34,15.90
2015,08,07,02,35,15.90
2015,08,07,02,36,15.90
2015,08,07,02,37,15.90
2015,08,07,02,38,15.90
2015,08,07,02,39,15.90
2015,08,07,02,40,15.90
2015,08,07,02,41,15.90
2015,08,07,02,42,15.90
2015,08,07,02,43,15.90
2015,08,07,02,44,15.90
2015,08,07,02,45,15.90
2015,08,07,02,46,15.90
2015,08,07,02,47,15.90
2015,08,07,02,48,15.90
2015,08,07,02,49,15.90
2015,08,07,02,50,15.90
2015,08,07,02,51,15.90
2015,08,07,02,52,15.90
2015,08,07,02,53,15.90
2015,08,07,02,54,15.90
2015,08,07,02,55,15.90
2015,08,07,02,56,15.90
2015,08,07,02,57,15.90
2015,08,07,02,58,15.90
2015,08,07,02,59,15.90
2015,08,07,03,00,15.90
2015,08,07,03,01,15.90
2015,08,07,03,02,15.90
2015,08,07,03,03,15.90
2015,08,07,03,04,15.90
2015,08,07,03,05,15.90
2015,08,07,03,06,15.90
2015,08,07,03,07,15.90
2015,08,07,03,08,15.90
2015,08,07,03,09,15.90
2015,08,07,03,10,15.80
2015,08,07,03,11,15.80
2015,08,07,03,12,15.80
2015,08,07,03,13,15.80
2015,08,07,03,14,15.80
2015,08,07,03,15,15.80
2015,08,07,03,16,15.80
2015,08,07,03,17,15.80
2015,08,07,03,18,15.80
2015,08,07,03,19,15.80
2015,08,07,03,20,15.80
2015,08,07,03,21,15.80
2015,08,07,03,22,15.80
2015,08,07,03,23,15.80
2015,08,07,03,24,15.80
2015,08,07,03,25,15.80
2015,08,07,03,26,15.80
2015,08,07,03,27,15.80
2015,08,07,03,28,15.80
2015,08,07,03,29,15.80
2015,08,07,03,30,15.80
2015,08,07,03,31,15.80
2015,08,07,03,32,15.80
2015,08,07,03,33,15.80
2015,08,07,03,34,15.70
2015,08,07,03,35,15.80
2015,08,07,03,36,15.70
2015,08,07,03,37,15.70
2015,08,07,03,38,15.70
2015,08,07,03,39,15.70
2015,08,07,03,40,15.70
2015,08,07,03,41,15.70
2015,08,07,03,42,15.70
2015,08,07,03,43,15.70
2015,08,07,03,44,15.70
2015,08,07,03,45,15.70
2015,08,07,03,46,15.70
2015,08,07,03,47,15.70
2015,08,07,03,48,15.70
2015,08,07,03,49,15.60
2015,08,07,03,50,15.60
2015,08,07,03,51,15.60
2015,08,07,03,52,15.60
2015,08,07,03,53,15.60
2015,08,07,03,54,15.60
2015,08,07,03,55,15.60
2015,08,07,03,56,15.60
2015,08,07,03,57,15.60
2015,08,07,03,58,15.70
2015,08,07,03,59,15.70
2015,08,07,04,00,15.70
2015,08,07,04,01,15.70
2015,08,07,04,02,15.70
2015,08,07,05,02,15.60
2015,08,07,05,03,15.60
2015,08,07,05,04,15.60
2015,08,07,05,05,15.60
2015,08,07,05,06,15.60
2015,08,07,05,07,15.60
2015,08,07,05,08,15.60
2015,08,07,05,09,15.60
2015,08,07,05,10,15.50
2015,08,07,05,11,15.50
2015,08,07,05,12,15.50
2015,08,07,05,13,15.50
2015,08,07,05,14,15.50
2015,08,07,05,15,15.50
2015,08,07,05,16,15.50
2015,08,07,05,17,15.40
2015,08,07,05,18,15.40
2015,08,07,05,19,15.40
2015,08,07,05,20,15.40
2015,08,07,05,21,15.40
2015,08,07,05,22,15.40
2015,08,07,05,23,15.30
2015,08,07,05,24,15.30
2015,08,07,05,25,15.30
2015,08,07,05,26,15.30
2015,08,07,05,27,15.30
2015,08,07,05,28,15.30
2015,08,07,05,29,15.30
2015,08,07,05,30,15.30
2015,08,07,05,31,15.30
2015,08,07,05,32,15.30
2015,08,07,05,33,15.30
2015,08,07,05,34,15.30
2015,08,07,05,35,15.30
2015,08,07,05,36,15.30
2015,08,07,05,37,15.30
2015,08,07,05,38,15.30
2015,08,07,05,39,15.30
2015,08,07,05,40,15.30
2015,08,07,05,41,15.30
2015,08,07,05,42,15.30
2015,08,07,05,43,15.30
2015,08,07,05,44,15.30
2015,08,07,05,45,15.30
2015,08,07,05,46,15.30
2015,08,07,05,47,15.30
2015,08,07,05,48,15.30
2015,08,07,05,49,15.30
2015,08,07,05,50,15.30
2015,08,07,05,51,15.30
2015,08,07,05,52,15.30
2015,08,07,05,53,15.30
2015,08,07,05,54,15.40
2015,08,07,05,55,15.40
2015,08,07,05,56,15.40
2015,08,07,05,57,15.40
2015,08,07,05,58,15.40
2015,08,07,05,59,15.40
2015,08,07,06,00,15.40
2015,08,07,06,01,15.40
2015,08,07,06,02,15.40
2015,08,07,06,03,15.40
2015,08,07,06,04,15.40
2015,08,07,06,05,15.50
2015,08,07,06,06,15.50
2015,08,07,06,07,15.50
2015,08,07,06,08,15.50
2015,08,07,06,09,15.50
2015,08,07,06,10,15.60
2015,08,07,06,11,15.60
2015,08,07,06,12,15.60
2015,08,07,06,13,15.60
2015,08,07,06,14,15.60
2015,08,07,06,15,15.60
2015,08,07,06,16,15.70
2015,08,07,06,17,15.70
2015,08,07,06,18,15.70
2015,08,07,06,19,15.70
2015,08,07,06,20,15.70
2015,08,07,06,21,15.70
2015,08,07,06,22,15.70
2015,08,07,06,23,15.70
2015,08,07,06,24,15.70
2015,08,07,06,25,15.70
2015,08,07,06,26,15.70
2015,08,07,06,27,15.70
2015,08,07,06,28,15.70
2015,08,07,06,29,15.70
2015,08,07,06,30,15.70
2015,08,07,06,31,15.70
2015,08,07,06,32,15.70
2015,08,07,06,33,15.70
2015,08,07,06,34,15.70
2015,08,07,06,35,15.70
2015,08,07,06,36,15.70
2015,08,07,06,37,15.70
2015,08,07,06,38,15.70
2015,08,07,06,39,15.70
2015,08,07,06,40,15.70
2015,08,07,06,41,15.70
2015,08,07,06,42,15.70
2015,08,07,06,43,15.70
2015,08,07,06,44,15.70
2015,08,07,06,45,15.70
2015,08,07,06,46,15.70
2015,08,07,06,47,15.70
2015,08,07,06,48,15.70
2015,08,07,06,49,15.70
2015,08,07,06,50,15.70
2015,08,07,06,51,15.70
2015,08,07,06,52,15.70
2015,08,07,06,53,15.70
2015,08,07,06,54,15.70
2015,08,07,06,55,15.70
2015,08,07,06,56,15.70
2015,08,07,06,57,15.70
2015,08,07,06,58,15.80
2015,08,07,06,59,15.80
2015,08,07,07,00,15.80
2015,08,07,07,01,15.80
2015,08,07,07,02,15.80
2015,08,07,07,03,15.80
2015,08,07,07,04,15.80
2015,08,07,07,05,15.80
2015,08,07,07,06,15.80
2015,08,07,07,07,15.80
2015,08,07,07,08,15.80
2015,08,07,07,09,15.90
2015,08,07,07,10,15.90
2015,08,07,07,11,15.90
2015,08,07,07,12,15.90
2015,08,07,07,13,15.90
2015,08,07,07,14,15.90
2015,08,07,07,15,15.90
2015,08,07,07,16,16.00
2015,08,07,07,17,16.00
2015,08,07,07,18,16.00
2015,08,07,07,19,16.00
2015,08,07,07,20,16.00
2015,08,07,07,21,16.10
2015,08,07,07,22,16.10
2015,08,07,07,23,16.10
2015,08,07,07,24,16.10
2015,08,07,07,25,16.10
2015,08,07,07,26,16.20
2015,08,07,07,27,16.20
2015,08,07,07,28,16.20
2015,08,07,07,29,16.20
2015,08,07,07,30,16.20
2015,08,07,07,31,16.20
2015,08,07,07,32,16.30
2015,08,07,07,33,16.30
2015,08,07,07,34,16.30
2015,08,07,07,35,16.30
2015,08,07,07,36,16.30
2015,08,07,07,37,16.40
2015,08,07,07,38,16.40
2015,08,07,07,39,16.40
2015,08,07,07,40,16.50
2015,08,07,07,41,16.50
2015,08,07,07,42,16.60
2015,08,07,07,43,16.60
2015,08,07,07,44,16.70
2015,08,07,07,45,16.70
2015,08,07,07,46,16.70
2015,08,07,07,47,16.70
2015,08,07,07,48,16.80
2015,08,07,07,49,16.80
2015,08,07,07,50,16.80
2015,08,07,07,51,16.80
2015,08,07,07,52,16.90
2015,08,07,07,53,16.90
2015,08,07,07,54,16.90
2015,08,07,07,55,17.00
2015,08,07,07,56,17.00
2015,08,07,07,57,17.00
2015,08,07,07,58,17.00
2015,08,07,07,59,17.00
2015,08,07,08,00,17.10
2015,08,07,08,01,17.10
2015,08,07,08,02,17.10
2015,08,07,08,03,17.10
2015,08,07,08,04,17.10
2015,08,07,08,05,17.10
2015,08,07,08,06,17.10
2015,08,07,08,07,17.10
2015,08,07,08,08,17.10
2015,08,07,08,09,17.00
2015,08,07,08,10,17.00
2015,08,07,08,11,16.90
2015,08,07,08,12,16.90
2015,08,07,08,13,16.80
2015,08,07,08,14,16.80
2015,08,07,08,15,16.80
2015,08,07,08,16,16.80
2015,08,07,08,17,16.80
2015,08,07,08,18,16.80
2015,08,07,08,19,16.80
2015,08,07,08,20,16.80
2015,08,07,08,21,16.70
2015,08,07,08,22,16.70
2015,08,07,08,23,16.70
2015,08,07,08,24,16.70
2015,08,07,08,25,16.70
2015,08,07,08,26,16.70
2015,08,07,08,27,16.70
2015,08,07,08,28,16.70
2015,08,07,08,29,16.70
2015,08,07,08,30,16.70
2015,08,07,08,31,16.70
2015,08,07,08,32,16.70
2015,08,07,08,33,16.70
2015,08,07,08,34,16.70
2015,08,07,08,35,16.70
2015,08,07,08,36,16.70
2015,08,07,08,37,16.70
2015,08,07,08,38,16.70
2015,08,07,08,39,16.80
2015,08,07,08,40,16.80
2015,08,07,08,41,16.80
2015,08,07,08,42,16.90
2015,08,07,08,43,16.90
2015,08,07,08,44,16.90
2015,08,07,08,45,17.00
2015,08,07,08,46,17.00
2015,08,07,08,47,17.00
2015,08,07,08,48,17.00
2015,08,07,08,49,17.10
2015,08,07,08,50,17.10
2015,08,07,08,51,17.10
2015,08,07,08,52,17.10
2015,08,07,08,53,17.20
2015,08,07,08,54,17.20
2015,08,07,08,55,17.20
2015,08,07,08,56,17.20
2015,08,07,08,57,17.20
2015,08,07,08,58,17.30
2015,08,07,08,59,17.30
2015,08,07,09,00,17.30
2015,08,07,09,01,17.40
2015,08,07,09,02,17.50
2015,08,07,09,03,17.50
2015,08,07,09,04,17.50
2015,08,07,09,05,17.60
2015,08,07,09,06,17.60
2015,08,07,09,07,17.70
2015,08,07,09,08,17.70
2015,08,07,09,09,17.70
2015,08,07,09,10,17.70
2015,08,07,09,11,17.70
2015,08,07,09,12,17.70
2015,08,07,09,13,17.70
2015,08,07,09,14,17.70
2015,08,07,09,15,17.70
2015,08,07,09,16,17.60
2015,08,07,09,17,17.60
2015,08,07,09,18,17.60
2015,08,07,09,19,17.60
2015,08,07,09,20,17.60
2015,08,07,09,21,17.60
2015,08,07,09,22,17.60
2015,08,07,09,23,17.60
2015,08,07,09,24,17.60
2015,08,07,09,25,17.60
2015,08,07,09,26,17.60
2015,08,07,09,27,17.60
2015,08,07,09,28,17.60
2015,08,07,09,29,17.60
2015,08,07,09,30,17.60
2015,08,07,09,31,17.60
2015,08,07,09,32,17.60
2015,08,07,09,33,17.60
2015,08,07,09,34,17.60
2015,08,07,09,35,17.60
2015,08,07,09,36,17.60
2015,08,07,09,37,17.60
2015,08,07,09,38,17.60
2015,08,07,09,39,17.60
2015,08,07,09,40,17.60
2015,08,07,09,41,17.60
2015,08,07,09,42,17.70
2015,08,07,09,43,17.70
2015,08,07,09,44,17.70
2015,08,07,09,45,17.80
2015,08,07,09,46,17.80
2015,08,07,09,47,17.80
2015,08,07,09,48,17.90
2015,08,07,09,49,17.90
2015,08,07,09,50,17.90
2015,08,07,09,51,18.00
2015,08,07,09,52,18.00
2015,08,07,09,53,18.00
2015,08,07,09,54,18.00
2015,08,07,09,55,18.00
2015,08,07,09,56,18.00
2015,08,07,09,57,18.10
2015,08,07,09,58,18.10
2015,08,07,09,59,18.10
2015,08,07,10,00,18.10
2015,08,07,10,01,18.10
2015,08,07,10,02,18.10
2015,08,07,10,03,18.00
2015,08,07,10,04,18.00
2015,08,07,10,05,18.00
2015,08,07,10,06,18.00
2015,08,07,10,07,18.00
2015,08,07,10,08,18.00
2015,08,07,10,09,18.00
2015,08,07,10,10,18.00
2015,08,07,10,11,18.10
2015,08,07,10,12,18.10
2015,08,07,10,13,18.20
2015,08,07,10,14,18.20
2015,08,07,10,15,18.30
2015,08,07,10,16,18.30
2015,08,07,10,17,18.40
2015,08,07,10,18,18.50
2015,08,07,10,19,18.50
2015,08,07,10,20,18.60
2015,08,07,10,21,18.50
2015,08,07,10,22,18.60
2015,08,07,10,23,18.60
2015,08,07,10,24,18.60
2015,08,07,10,25,18.60
2015,08,07,10,26,18.60
2015,08,07,10,27,18.60
2015,08,07,10,28,18.60
2015,08,07,10,29,18.60
2015,08,07,10,30,18.60
2015,08,07,10,31,18.70
2015,08,07,10,32,18.70
2015,08,07,10,33,18.70
2015,08,07,10,34,18.80
2015,08,07,10,35,18.80
2015,08,07,10,36,18.80
2015,08,07,10,37,18.80
2015,08,07,10,38,18.80
2015,08,07,10,39,18.80
2015,08,07,10,40,18.80
2015,08,07,10,41,18.70
2015,08,07,10,42,18.70
2015,08,07,10,43,18.70
2015,08,07,10,44,18.60
2015,08,07,10,45,18.60
2015,08,07,10,46,18.60
2015,08,07,10,47,18.60
2015,08,07,10,48,18.70
2015,08,07,10,49,18.70
2015,08,07,10,50,18.70
2015,08,07,10,51,18.70
2015,08,07,10,52,18.70
2015,08,07,10,53,18.60
2015,08,07,10,54,18.60
2015,08,07,10,55,18.60
2015,08,07,10,56,18.60
2015,08,07,10,57,18.60
2015,08,07,10,58,18.60
2015,08,07,10,59,18.60
2015,08,07,11,00,18.60
2015,08,07,11,01,18.60
2015,08,07,11,02,18.70
2015,08,07,11,03,18.70
2015,08,07,11,04,18.70
2015,08,07,11,05,18.70
2015,08,07,11,06,18.70
2015,08,07,11,07,18.70
2015,08,07,11,08,18.60
2015,08,07,11,09,18.60
2015,08,07,11,10,18.50
2015,08,07,11,11,18.50
2015,08,07,11,12,18.40
2015,08,07,11,13,18.40
2015,08,07,11,14,18.40
2015,08,07,11,15,18.40
2015,08,07,11,16,18.40
2015,08,07,11,17,18.40
2015,08,07,11,18,18.40
2015,08,07,11,19,18.30
2015,08,07,11,20,18.30
2015,08,07,11,21,18.30
2015,08,07,11,22,18.30
2015,08,07,11,23,18.30
2015,08,07,11,24,18.20
2015,08,07,11,25,18.20
2015,08,07,11,26,18.20
2015,08,07,11,27,18.10
2015,08,07,11,28,18.10
2015,08,07,11,29,18.20
2015,08,07,11,30,18.20
2015,08,07,11,31,18.20
2015,08,07,11,32,18.20
2015,08,07,11,33,18.20
2015,08,07,11,34,18.30
2015,08,07,11,35,18.30
2015,08,07,11,36,18.30
2015,08,07,11,37,18.30
2015,08,07,11,38,18.30
2015,08,07,11,39,18.30
2015,08,07,11,40,18.30
2015,08,07,11,41,18.30
2015,08,07,11,42,18.30
2015,08,07,11,43,18.30
2015,08,07,11,44,18.30
2015,08,07,11,45,18.30
2015,08,07,11,46,18.30
2015,08,07,11,47,18.30
2015,08,07,11,48,18.30
2015,08,07,11,49,18.40
2015,08,07,11,50,18.40
2015,08,07,11,51,18.30
2015,08,07,11,52,18.30
2015,08,07,11,53,18.30
2015,08,07,11,54,18.30
2015,08,07,11,55,18.30
2015,08,07,11,56,18.30
2015,08,07,11,57,18.20
2015,08,07,11,58,18.20
2015,08,07,11,59,18.20
2015,08,07,12,00,18.20
2015,08,07,12,01,18.10
2015,08,07,12,02,18.10
2015,08,07,12,03,18.10
2015,08,07,12,04,18.10
2015,08,07,12,05,18.10
2015,08,07,12,06,18.10
2015,08,07,12,07,18.10
2015,08,07,12,08,18.10
2015,08,07,12,09,18.10
2015,08,07,12,10,18.10
2015,08,07,12,11,18.10
2015,08,07,12,12,18.10
2015,08,07,12,13,18.10
2015,08,07,12,14,18.10
2015,08,07,12,15,18.10
2015,08,07,12,16,18.10
2015,08,07,12,17,18.10
2015,08,07,12,18,18.20
2015,08,07,12,19,18.20
2015,08,07,12,20,18.20
2015,08,07,12,21,18.20
2015,08,07,12,22,18.30
2015,08,07,12,23,18.30
2015,08,07,12,24,18.30
2015,08,07,12,25,18.30
2015,08,07,12,26,18.30
2015,08,07,12,27,18.30
2015,08,07,12,28,18.30
2015,08,07,12,29,18.40
2015,08,07,12,30,18.40
2015,08,07,12,31,18.40
2015,08,07,12,32,18.40
2015,08,07,12,33,18.40
2015,08,07,12,34,18.40
2015,08,07,12,35,18.40
2015,08,07,12,36,18.50
2015,08,07,12,37,18.50
2015,08,07,12,38,18.60
2015,08,07,12,39,18.60
2015,08,07,12,40,18.70
2015,08,07,12,41,18.70
2015,08,07,12,42,18.80
2015,08,07,12,43,18.80
2015,08,07,12,44,18.80
2015,08,07,12,45,18.90
2015,08,07,12,46,18.90
2015,08,07,12,47,18.90
2015,08,07,12,48,18.90
2015,08,07,12,49,18.90
2015,08,07,12,50,18.90
2015,08,07,12,51,18.90
2015,08,07,12,52,19.00
2015,08,07,12,53,19.00
2015,08,07,12,54,19.10
2015,08,07,12,55,19.10
2015,08,07,12,56,19.10
2015,08,07,12,57,19.10
2015,08,07,12,58,19.20
2015,08,07,12,59,19.30
2015,08,07,13,00,19.40
2015,08,07,13,01,19.40
2015,08,07,13,02,19.40
2015,08,07,13,03,19.40
2015,08,07,13,04,19.30
2015,08,07,13,05,19.30
2015,08,07,13,06,19.30
2015,08,07,13,07,19.20
2015,08,07,13,08,19.20
2015,08,07,13,09,19.30
2015,08,07,13,10,19.30
2015,08,07,13,11,19.30
2015,08,07,13,12,19.30
2015,08,07,13,13,19.40
2015,08,07,13,14,19.40
2015,08,07,13,15,19.40
2015,08,07,13,16,19.40
2015,08,07,13,17,19.40
2015,08,07,13,18,19.40
2015,08,07,13,19,19.40
2015,08,07,13,20,19.50
2015,08,07,13,21,19.50
2015,08,07,13,22,19.60
2015,08,07,13,23,19.60
2015,08,07,13,24,19.60
2015,08,07,13,25,19.60
2015,08,07,13,26,19.60
2015,08,07,13,27,19.70
2015,08,07,13,28,19.70
2015,08,07,13,29,19.80
2015,08,07,13,30,19.80
2015,08,07,13,31,19.90
2015,08,07,13,32,19.80
2015,08,07,13,33,19.80
2015,08,07,13,34,19.80
2015,08,07,13,35,19.70
2015,08,07,13,36,19.70
2015,08,07,13,37,19.80
2015,08,07,13,38,19.80
2015,08,07,13,39,19.90
2015,08,07,13,40,20.00
2015,08,07,13,41,20.10
2015,08,07,13,42,20.10
2015,08,07,13,43,20.10
2015,08,07,13,44,20.10
2015,08,07,13,45,20.00
2015,08,07,13,46,20.00
2015,08,07,13,47,20.00
2015,08,07,13,48,20.00
2015,08,07,13,49,20.00
2015,08,07,13,50,20.00
2015,08,07,13,51,19.90
2015,08,07,13,52,19.90
2015,08,07,13,53,19.90
2015,08,07,13,54,19.80
2015,08,07,13,55,19.80
2015,08,07,13,56,19.70
2015,08,07,13,57,19.70
2015,08,07,13,58,19.70
2015,08,07,13,59,19.60
2015,08,07,14,00,19.60
2015,08,07,14,01,19.60
2015,08,07,14,02,19.50
2015,08,07,14,03,19.40
2015,08,07,14,04,19.30
2015,08,07,14,05,19.30
2015,08,07,14,06,19.10
2015,08,07,14,07,19.00
2015,08,07,14,08,18.90
2015,08,07,14,09,18.90
2015,08,07,14,10,18.90
2015,08,07,14,11,18.80
2015,08,07,14,12,18.80
2015,08,07,14,13,18.80
2015,08,07,14,14,18.80
2015,08,07,14,15,18.80
2015,08,07,14,16,18.70
2015,08,07,14,17,18.70
2015,08,07,14,18,18.60
2015,08,07,14,19,18.60
2015,08,07,14,20,18.60
2015,08,07,14,21,18.70
2015,08,07,14,22,18.70
2015,08,07,14,23,18.70
2015,08,07,14,24,18.70
2015,08,07,14,25,18.60
2015,08,07,14,26,18.60
2015,08,07,14,27,18.60
2015,08,07,14,28,18.60
2015,08,07,14,29,18.60
2015,08,07,14,30,18.60
2015,08,07,14,31,18.60
2015,08,07,14,32,18.60
2015,08,07,14,33,18.60
2015,08,07,14,34,18.60
2015,08,07,14,35,18.60
2015,08,07,14,36,18.60
2015,08,07,14,37,18.60
2015,08,07,14,38,18.60
2015,08,07,14,39,18.60
2015,08,07,14,40,18.60
2015,08,07,14,41,18.70
2015,08,07,14,42,18.70
2015,08,07,14,43,18.80
2015,08,07,14,44,18.80
2015,08,07,14,45,18.80
2015,08,07,14,46,18.80
2015,08,07,14,47,18.80
2015,08,07,14,48,18.90
2015,08,07,14,49,19.00
2015,08,07,14,50,19.00
2015,08,07,14,51,19.10
2015,08,07,14,52,19.20
2015,08,07,14,53,19.20
2015,08,07,14,54,19.20
2015,08,07,14,55,19.20
2015,08,07,14,56,19.20
2015,08,07,14,57,19.30
2015,08,07,14,58,19.30
2015,08,07,14,59,19.30
2015,08,07,15,00,19.30
2015,08,07,15,01,19.30
2015,08,07,15,02,19.30
2015,08,07,15,03,19.30
2015,08,07,15,04,19.20
2015,08,07,15,05,19.20
2015,08,07,15,06,19.20
2015,08,07,15,07,19.20
2015,08,07,15,08,19.10
2015,08,07,15,09,19.00
2015,08,07,15,10,18.90
2015,08,07,15,11,18.90
2015,08,07,15,12,18.80
2015,08,07,15,13,18.70
2015,08,07,15,14,18.60
2015,08,07,15,15,18.50
2015,08,07,15,16,18.40
2015,08,07,15,17,18.40
2015,08,07,15,18,18.30
2015,08,07,15,19,18.20
2015,08,07,15,20,18.20
2015,08,07,15,21,18.10
2015,08,07,15,22,18.10
2015,08,07,15,23,18.00
2015,08,07,15,24,18.00
2015,08,07,15,25,18.00
2015,08,07,15,26,17.90
2015,08,07,15,27,17.90
2015,08,07,15,28,17.90
2015,08,07,15,29,17.90
2015,08,07,15,30,17.80
2015,08,07,15,31,17.80
2015,08,07,15,32,17.70
2015,08,07,15,33,17.70
2015,08,07,15,34,17.60
2015,08,07,15,35,17.60
2015,08,07,15,36,17.60
2015,08,07,15,37,17.60
2015,08,07,15,38,17.60
2015,08,07,15,39,17.60
2015,08,07,15,40,17.60
2015,08,07,15,41,17.60
2015,08,07,15,42,17.60
2015,08,07,15,43,17.60
2015,08,07,15,44,17.60
2015,08,07,15,45,17.60
2015,08,07,15,46,17.50
2015,08,07,15,47,17.50
2015,08,07,15,48,17.40
2015,08,07,15,49,17.50
2015,08,07,15,50,17.50
2015,08,07,15,51,17.40
2015,08,07,15,52,17.40
2015,08,07,15,53,17.40
2015,08,07,15,54,17.40
2015,08,07,15,55,17.30
2015,08,07,15,56,17.30
2015,08,07,15,57,17.30
2015,08,07,15,58,17.30
2015,08,07,15,59,17.40
2015,08,07,16,00,17.40
2015,08,07,16,01,17.40
2015,08,07,16,02,17.40
2015,08,07,16,03,17.40
2015,08,07,16,04,17.40
2015,08,07,16,05,17.40
2015,08,07,16,06,17.40
2015,08,07,16,07,17.50
2015,08,07,16,08,17.50
2015,08,07,16,09,17.50
2015,08,07,16,10,17.60
2015,08,07,16,11,17.60
2015,08,07,16,12,17.60
2015,08,07,16,13,17.70
2015,08,07,16,14,17.70
2015,08,07,16,15,17.70
2015,08,07,16,16,17.70
2015,08,07,16,17,17.70
2015,08,07,16,18,17.70
2015,08,07,16,19,17.70
2015,08,07,16,20,17.80
2015,08,07,16,21,17.80
2015,08,07,16,22,17.80
2015,08,07,16,23,17.80
2015,08,07,16,24,17.80
2015,08,07,16,25,17.80
2015,08,07,16,26,17.80
2015,08,07,16,27,17.80
2015,08,07,16,28,17.80
2015,08,07,16,29,17.80
2015,08,07,16,30,17.80
2015,08,07,16,31,17.80
2015,08,07,16,32,17.80
2015,08,07,16,33,17.80
2015,08,07,16,34,17.80
2015,08,07,16,35,17.80
2015,08,07,16,36,17.90
2015,08,07,16,37,17.90
2015,08,07,16,38,17.90
2015,08,07,16,39,17.90
2015,08,07,16,40,17.80
2015,08,07,16,41,17.80
2015,08,07,16,42,17.80
2015,08,07,16,43,17.80
2015,08,07,16,44,17.80
2015,08,07,16,45,17.80
2015,08,07,16,46,17.80
2015,08,07,16,47,17.80
2015,08,07,16,48,17.80
2015,08,07,16,49,17.80
2015,08,07,16,50,17.80
2015,08,07,16,51,17.80
2015,08,07,16,52,17.80
2015,08,07,16,53,17.80
2015,08,07,16,54,17.70
2015,08,07,16,55,17.70
2015,08,07,16,56,17.70
2015,08,07,16,57,17.70
2015,08,07,16,58,17.70
2015,08,07,16,59,17.80
2015,08,07,17,00,17.80
2015,08,07,17,01,17.80
2015,08,07,17,02,17.80
2015,08,07,17,03,17.80
2015,08,07,17,04,17.90
2015,08,07,17,05,17.90
2015,08,07,17,06,17.90
2015,08,07,17,07,17.90
2015,08,07,17,08,17.90
2015,08,07,17,09,17.90
2015,08,07,17,10,17.90
2015,08,07,17,11,18.00
2015,08,07,17,12,18.00
2015,08,07,17,13,18.10
2015,08,07,17,14,18.10
2015,08,07,17,15,18.10
2015,08,07,17,16,18.10
2015,08,07,17,17,18.20
2015,08,07,17,18,18.20
2015,08,07,17,19,18.20
2015,08,07,17,20,18.30
2015,08,07,17,21,18.30
2015,08,07,17,22,18.30
2015,08,07,17,23,18.40
2015,08,07,17,24,18.40
2015,08,07,17,25,18.40
2015,08,07,17,26,18.40
2015,08,07,17,27,18.40
2015,08,07,17,28,18.50
2015,08,07,17,29,18.50
2015,08,07,17,30,18.50
2015,08,07,17,31,18.50
2015,08,07,17,32,18.50
2015,08,07,17,33,18.60
2015,08,07,17,34,18.60
2015,08,07,17,35,18.60
2015,08,07,17,36,18.60
2015,08,07,17,37,18.60
2015,08,07,17,38,18.60
2015,08,07,17,39,18.60
2015,08,07,17,40,18.60
2015,08,07,17,41,18.60
2015,08,07,17,42,18.60
2015,08,07,17,43,18.60
2015,08,07,17,44,18.50
2015,08,07,17,45,18.50
2015,08,07,17,46,18.50
2015,08,07,17,47,18.50
2015,08,07,17,48,18.60
2015,08,07,17,49,18.60
2015,08,07,17,50,18.60
2015,08,07,17,51,18.60
2015,08,07,17,52,18.60
2015,08,07,17,53,18.60
2015,08,07,17,54,18.60
2015,08,07,17,55,18.60
2015,08,07,17,56,18.70
2015,08,07,17,57,18.70
2015,08,07,17,58,18.70
2015,08,07,17,59,18.70
2015,08,07,18,00,18.80
2015,08,07,18,01,18.80
2015,08,07,18,02,18.90
2015,08,07,18,03,18.90
2015,08,07,18,04,18.90
2015,08,07,18,05,18.90
2015,08,07,18,06,18.90
2015,08,07,18,07,18.90
2015,08,07,18,08,18.80
2015,08,07,18,09,18.80
2015,08,07,18,10,18.90
2015,08,07,18,11,18.90
2015,08,07,18,12,18.90
2015,08,07,18,13,18.90
2015,08,07,18,14,19.00
2015,08,07,18,15,19.00
2015,08,07,18,16,19.10
2015,08,07,18,17,19.10
2015,08,07,18,18,19.10